| time (UTC) | temp C | wind direction | speed KPH | gust KPH | rain 1hr cm | rain 24hr cm | rain mn cm | humidity % | barometer mb |
| 20260505121507 | 16 | 291 | 1.6 | 9.7 | 0.00 | 0.00 | 0.00 | 69 | 1006.1 |
| 20260505120010 | 16 | 95 | 3.2 | 8.0 | 0.00 | 0.00 | 0.00 | 68 | 1006.4 |
| 20260505114520 | 16 | 278 | 1.6 | 12.9 | 0.00 | 0.00 | 0.00 | 66 | 1006.6 |
| 20260505113019 | 17 | 290 | 1.6 | 6.4 | 0.00 | 0.00 | 0.00 | 64 | 1006.5 |
| 20260505111509 | 17 | 170 | 3.2 | 6.4 | 0.00 | 0.00 | 0.00 | 64 | 1006.5 |
| 20260505101520 | 17 | 231 | 1.6 | 9.7 | 0.00 | 0.00 | 0.00 | 61 | 1006.2 |
| 20260505100006 | 17 | 229 | 4.8 | 14.5 | 0.00 | 0.00 | 0.00 | 60 | 1006.1 |
| 20260505094510 | 17 | 166 | 1.6 | 16.1 | 0.00 | 0.00 | 0.00 | 61 | 1005.9 |
| 20260505093015 | 17 | 234 | 1.6 | 9.7 | 0.00 | 0.00 | 0.00 | 62 | 1005.8 |
| 20260505091529 | 17 | 273 | 3.2 | 9.7 | 0.00 | 0.00 | 0.00 | 61 | 1005.6 |
| 20260505090040 | 17 | 281 | 1.6 | 8.0 | 0.00 | 0.00 | 0.00 | 63 | 1005.5 |
| 20260505084507 | 17 | 318 | 1.6 | 19.3 | 0.00 | 0.00 | 0.00 | 61 | 1005.4 |
| 20260505083013 | 17 | 21 | 4.8 | 19.3 | 0.00 | 0.00 | 0.00 | 63 | 1005.4 |
| 20260505081521 | 17 | 241 | 1.6 | 9.7 | 0.00 | 0.00 | 0.00 | 63 | 1005.3 |
| 20260505080041 | 17 | 310 | 1.6 | 6.4 | 0.00 | 0.00 | 0.00 | 64 | 1005.2 |
| 20260505074528 | 17 | 197 | 3.2 | 6.4 | 0.00 | 0.00 | 0.00 | 64 | 1005.2 |
| 20260505073013 | 17 | 253 | 1.6 | 9.7 | 0.00 | 0.00 | 0.00 | 64 | 1004.8 |
| 20260505071510 | 17 | 256 | 1.6 | 9.7 | 0.00 | 0.00 | 0.00 | 65 | 1004.8 |
| 20260505070021 | 17 | 236 | 3.2 | 8.0 | 0.00 | 0.00 | 0.00 | 65 | 1004.7 |
| 20260505064522 | 17 | 223 | 3.2 | 8.0 | 0.00 | 0.00 | 0.00 | 64 | 1004.8 |
| 20260505063023 | 17 | 165 | 1.6 | 9.7 | 0.00 | 0.00 | 0.00 | 63 | 1004.9 |
| 20260505061516 | 17 | 271 | 1.6 | 8.0 | 0.00 | 0.00 | 0.00 | 63 | 1005.0 |
| 20260505060022 | 17 | 285 | 1.6 | 11.3 | 0.00 | 0.00 | 0.00 | 63 | 1005.1 |
| 20260505054523 | 17 | 84 | 1.6 | 9.7 | 0.00 | 0.00 | 0.00 | 63 | 1005.3 |
| 20260505053022 | 18 | 283 | 1.6 | 12.9 | 0.00 | 0.00 | 0.00 | 62 | 1005.6 |
| 20260505051525 | 18 | 252 | 3.2 | 9.7 | 0.00 | 0.00 | 0.00 | 62 | 1005.7 |
| 20260505041540 | 17 | 18 | 1.6 | 8.0 | 0.00 | 0.00 | 0.00 | 63 | 1005.6 |
| 20260505040027 | 17 | 275 | 1.6 | 9.7 | 0.00 | 0.00 | 0.00 | 64 | 1005.6 |
| 20260505034527 | 17 | 257 | 1.6 | 8.0 | 0.00 | 0.00 | 0.00 | 64 | 1005.9 |
| 20260505033019 | 17 | 244 | 1.6 | 6.4 | 0.00 | 0.00 | 0.00 | 64 | 1005.9 |
| 20260505031522 | 17 | 230 | 1.6 | 8.0 | 0.00 | 0.00 | 0.00 | 64 | 1006.0 |
| 20260505030033 | 17 | 285 | 1.6 | 8.0 | 0.00 | 0.00 | 0.00 | 64 | 1006.0 |
| 20260505024527 | 17 | 295 | 1.6 | 8.0 | 0.00 | 0.00 | 0.00 | 63 | 1005.9 |
| 20260505023039 | 17 | 244 | 3.2 | 9.7 | 0.00 | 0.00 | 0.00 | 63 | 1005.8 |
| 20260505021516 | 17 | 257 | 1.6 | 8.0 | 0.00 | 0.00 | 0.00 | 63 | 1005.9 |
| 20260505020021 | 17 | 167 | 1.6 | 4.8 | 0.00 | 0.00 | 0.00 | 62 | 1006.1 |
| 20260505014506 | 17 | 268 | 1.6 | 9.7 | 0.00 | 0.00 | 0.00 | 62 | 1006.2 |
| 20260505013018 | 17 | 276 | 0.0 | 9.7 | 0.00 | 0.00 | 0.00 | 61 | 1006.1 |
| 20260505011521 | 18 | 288 | 1.6 | 6.4 | 0.00 | 0.00 | 0.00 | 60 | 1005.9 |
| 20260505010019 | 18 | 284 | 1.6 | 6.4 | 0.00 | 0.00 | 0.00 | 59 | 1005.9 |
| 20260505004503 | 18 | 271 | 0.0 | 14.5 | 0.00 | 0.00 | 0.00 | 57 | 1005.8 |
| 20260505003007 | 19 | 243 | 3.2 | 9.7 | 0.00 | 0.00 | 0.00 | 56 | 1005.8 |
| 20260505001514 | 19 | 247 | 4.8 | 12.9 | 0.00 | 0.00 | 0.00 | 54 | 1005.6 |
| 20260505000027 | 20 | 265 | 4.8 | 24.1 | 0.00 | 0.00 | 0.00 | 53 | 1005.5 |
| 20260504234523 | 20 | 325 | 4.8 | 22.5 | 0.00 | 0.00 | 0.00 | 52 | 1005.5 |
| 20260504233007 | 20 | 247 | 3.2 | 17.7 | 0.00 | 0.00 | 0.00 | 51 | 1005.4 |
| 20260504231508 | 21 | 295 | 3.2 | 11.3 | 0.00 | 0.00 | 0.00 | 48 | 1005.4 |
| 20260504230017 | 21 | 264 | 4.8 | 11.3 | 0.00 | 0.00 | 0.00 | 48 | 1005.4 |
| 20260504224517 | 21 | 280 | 4.8 | 9.7 | 0.00 | 0.00 | 0.00 | 48 | 1005.6 |
| 20260504223023 | 21 | 154 | 4.8 | 17.7 | 0.00 | 0.00 | 0.00 | 48 | 1005.7 |
| 20260504221505 | 22 | 247 | 8.0 | 17.7 | 0.00 | 0.00 | 0.00 | 45 | 1005.7 |
| 20260504220011 | 22 | 236 | 4.8 | 24.1 | 0.00 | 0.00 | 0.00 | 48 | 1005.6 |
| 20260504214514 | 22 | 276 | 6.4 | 20.9 | 0.00 | 0.00 | 0.00 | 49 | 1005.5 |
| 20260504213042 | 22 | 274 | 6.4 | 22.5 | 0.00 | 0.00 | 0.00 | 48 | 1005.5 |
| 20260504211525 | 22 | 231 | 8.0 | 14.5 | 0.00 | 0.00 | 0.00 | 46 | 1005.6 |
| 20260504210011 | 22 | 288 | 4.8 | 20.9 | 0.00 | 0.00 | 0.00 | 46 | 1005.8 |
| 20260504204512 | 22 | 267 | 4.8 | 17.7 | 0.00 | 0.00 | 0.00 | 48 | 1005.8 |
| 20260504203016 | 22 | 282 | 3.2 | 17.7 | 0.00 | 0.00 | 0.00 | 48 | 1006.0 |
| 20260504201526 | 23 | 310 | 6.4 | 14.5 | 0.00 | 0.00 | 0.00 | 47 | 1005.9 |
| 20260504200024 | 22 | 315 | 3.2 | 20.9 | 0.00 | 0.00 | 0.00 | 48 | 1005.9 |
| 20260504194514 | 22 | 271 | 4.8 | 17.7 | 0.00 | 0.00 | 0.00 | 48 | 1006.0 |
| 20260504193012 | 22 | 268 | 3.2 | 14.5 | 0.00 | 0.00 | 0.00 | 47 | 1006.2 |
| 20260504191520 | 22 | 269 | 4.8 | 14.5 | 0.00 | 0.00 | 0.00 | 47 | 1006.5 |
| 20260504190024 | 22 | 233 | 6.4 | 20.9 | 0.00 | 0.00 | 0.00 | 48 | 1006.6 |
| 20260504184523 | 22 | 276 | 4.8 | 12.9 | 0.00 | 0.00 | 0.00 | 47 | 1006.7 |
| 20260504183019 | 22 | 276 | 3.2 | 11.3 | 0.00 | 0.00 | 0.00 | 47 | 1006.8 |
| 20260504181516 | 21 | 330 | 3.2 | 17.7 | 0.00 | 0.00 | 0.00 | 51 | 1006.8 |
| 20260504180020 | 21 | 274 | 3.2 | 16.1 | 0.00 | 0.00 | 0.00 | 51 | 1007.0 |
| 20260504174522 | 20 | 70 | 6.4 | 20.9 | 0.00 | 0.00 | 0.00 | 51 | 1007.3 |
| 20260504173034 | 21 | 256 | 6.4 | 14.5 | 0.00 | 0.00 | 0.00 | 50 | 1007.3 |
| 20260504171518 | 21 | 265 | 4.8 | 17.7 | 0.00 | 0.00 | 0.00 | 48 | 1007.5 |